Wind_Speed
27 27 28 25 25 22 20 23 23 23 27 36 37 37 39 32 35 38 39 41 46 39 41 42 42 42 41 38 35 35 34 32 31 32 26 31 33 35 28 28 27 28 31
25 24 27 26 27 25 23 23 26 30 31 33 36 38 36 33 26 31 37 39 41 40 45 44 44 42 38 37 36 34 32 27 30 28 30 32 33 29 31 29 29 31 36
25 23 24 26 26 26 27 26 28 27 28 35 34 33 36 34 33 32 32 37 42 33 37 40 30 31 33 37 33 33 30 29 35 34 31 30 31 29 32 30 30 30 34
24 23 24 23 23 28 30 35 32 27 29 32 34 28 37 28 29 33 36 43 42 38 37 26 31 32 33 32 33 35 33 31 29 31 30 33 33 35 35 34 36 36 38
21 21 20 20 22 20 22 27 30 33 29 32 35 37 35 24 27 28 32 37 38 35 45 46 36 32 30 32 32 31 31 36 32 37 35 35 39 43 44 42 39 36 41
18 20 20 20 18 18 20 24 25 32 35 23 39 50 30 31 31 30 31 32 36 35 29 35 28 30 30 30 30 30 31 34 33 35 36 39 40 42 47 48 39 36 40
18 19 19 17 15 13 13 13 18 25 27 25 38 49 28 39 33 32 32 35 29 31 29 28 31 31 34 36 31 31 32 31 34 34 41 39 34 35 41 37 38 36 39
17 17 16 16 14 11 9 10 9 14 17 25 18 18 28 30 38 32 35 34 33 39 35 31 36 34 33 33 31 30 32 32 35 31 33 34 30 30 33 36 37 35 36
14 16 17 20 20 21 19 17 15 15 9 15 16 25 28 32 33 29 34 36 38 37 36 37 36 36 33 31 31 32 25 23 19 24 28 34 25 26 24 28 27 34 34
15 18 19 22 23 24 26 26 25 20 16 12 8 10 25 32 35 43 41 40 43 36 35 36 35 37 32 31 31 29 28 24 19 22 30 28 28 20 20 23 24 28 31
16 17 19 21 23 23 25 25 25 25 24 21 18 12 8 12 14 25 42 39 40 45 50 45 42 36 33 30 32 29 29 26 20 21 21 20 21 18 19 25 32 34 34
15 17 18 20 21 21 22 22 23 23 22 21 21 19 17 13 4 11 18 18 21 28 29 30 33 32 29 26 29 30 29 31 27 21 20 18 18 19 26 32 26 29 28
15 16 17 19 20 20 20 20 20 20 20 20 19 18 18 18 17 14 8 4 10 13 15 24 26 29 27 30 32 35 34 29 28 26 25 26 23 22 30 37 36 34 31
15 16 17 18 19 19 19 19 19 19 19 20 20 18 17 16 16 15 14 13 11 10 7 8 11 16 25 30 33 31 34 39 34 30 32 32 32 32 32 35 36 40 44
16 17 18 18 18 19 20 20 20 21 20 18 17 18 18 16 14 14 13 13 13 12 12 11 10 10 10 13 16 18 19 22 25 25 30 30 32 33 34 35 37 38 40
15 16 17 18 19 20 20 21 22 22 22 22 21 19 18 19 19 16 15 15 13 12 12 12 12 12 11 11 12 13 13 13 15 15 18 20 21 22 21 23 24 27 30
21 22 23 24 24 25 25 25 24 22 22 23 23 22 20 18 18 20 20 18 17 16 15 14 14 14 14 14 14 14 15 15 15 16 16 17 18 19 20 21 22 23 23
25 24 24 25 26 27 27 27 27 27 26 23 23 23 24 24 22 20 20 21 21 20 20 19 17 16 16 17 18 18 18 18 18 18 18 18 19 20 21 22 23 23 23
26 28 29 29 29 30 30 30 30 30 30 28 28 28 27 25 26 26 25 22 22 23 22 21 21 20 19 19 19 20 20 20 20 20 20 20 20 20 20 21 21 22 22
29 29 30 31 32 32 34 34 33 34 33 32 28 29 30 30 28 26 25 27 26 25 24 23 22 22 21 21 20 20 21 21 21 21 21 21 20 20 19 19 20 19 18
30 32 33 33 34 34 34 35 35 35 35 34 35 30 28 29 29 28 26 26 27 27 26 26 25 24 23 23 22 22 21 21 21 20 20 20 20 19 19 19 18 18 17
33 34 36 36 37 37 35 34 32 31 30 30 31 31 30 28 28 27 26 25 25 26 27 27 26 26 27 26 25 25 24 23 22 22 22 22 22 21 21 21 21 21 20
35 36 36 36 34 33 32 30 30 30 29 28 29 29 29 29 29 28 26 25 24 24 24 26 26 26 27 28 28 27 25 25 26 25 25 25 24 24 24 24 24 24 23
35 35 34 33 32 31 31 30 30 30 29 29 29 29 29 29 29 30 29 25 25 25 24 24 23 25 26 26 26 28 29 28 28 27 27 26 27 26 25 24 24 24 24
34 33 32 32 32 32 31 30 30 29 29 29 28 28 29 29 29 29 31 29 26 26 25 24 23 22 24 24 25 26 27 27 28 29 29 28 28 27 27 26 26 25 25
34 33 34 34 34 33 33 32 31 31 30 29 29 29 28 28 28 29 29 31 29 26 26 26 23 23 23 22 23 23 24 25 26 27 27 27 28 27 27 27 27 26 27
Wind_Direction
307 309 313 286 285 278 278 276 262 250 237 235 240 249 258 255 255 247 235 235 237 241 250 254 246 243 254 254 266 269 261 262 253 243 246 243 243 249 245 249 258 250 257
307 311 310 292 274 274 271 266 256 258 239 234 240 247 245 251 250 241 237 238 242 252 249 260 231 243 240 249 261 263 251 258 258 256 252 253 250 251 246 246 250 262 259
313 312 311 301 280 272 272 266 260 264 251 235 237 237 238 240 241 239 236 239 243 256 274 248 220 231 239 249 259 256 252 251 247 255 251 258 258 244 241 243 250 260 258
319 317 313 305 285 287 274 263 256 253 249 241 240 241 253 238 237 235 230 230 237 256 271 271 232 237 243 253 254 247 254 249 256 254 252 253 261 256 253 255 259 257 252
322 321 316 307 305 287 284 277 258 248 249 242 243 238 251 216 229 225 224 231 240 256 261 231 237 244 255 255 245 247 252 257 256 252 248 253 248 255 263 258 257 258 247
337 337 322 312 303 305 308 285 260 261 239 252 232 238 234 238 226 225 228 234 243 258 213 228 236 245 250 244 245 246 248 251 255 250 254 254 259 251 255 261 255 250 243
356 352 344 322 308 318 320 291 251 257 266 261 237 244 240 231 225 230 235 237 241 239 255 250 246 248 245 244 245 254 254 251 259 264 254 260 258 257 256 248 247 248 243
5 6 0 4 6 357 344 333 311 250 252 248 262 248 249 228 230 234 236 239 238 227 247 249 249 246 246 248 252 250 253 258 268 264 254 253 252 249 251 241 246 249 235
18 24 28 30 28 30 33 28 14 5 345 271 264 238 252 228 231 233 230 236 236 242 246 255 250 242 243 244 245 243 255 266 266 247 253 251 244 240 237 226 235 233 234
38 30 34 38 36 36 36 38 40 36 25 14 313 287 241 237 233 219 211 228 231 237 246 250 235 245 243 243 240 243 248 262 270 263 265 268 225 238 239 236 218 239 232
45 40 39 41 42 39 39 38 38 38 37 35 31 17 327 275 244 238 216 212 220 240 245 239 245 241 242 242 242 243 246 254 262 248 261 263 238 235 243 239 230 246 227
40 35 35 37 37 37 38 37 36 31 32 32 32 31 29 35 4 254 235 221 209 211 223 228 236 238 235 237 226 245 244 255 251 244 243 248 250 242 249 239 246 239 240
39 34 31 31 30 29 28 26 26 27 25 29 31 23 17 20 21 23 19 306 251 237 226 226 231 235 229 230 228 233 233 245 238 245 235 243 243 244 243 241 255 255 251
30 28 25 22 21 20 20 18 17 15 15 15 14 17 22 17 9 5 7 7 0 348 327 305 263 252 236 238 239 241 240 239 243 239 242 240 244 239 243 249 246 246 248
24 21 18 16 14 11 6 6 4 4 4 6 3 359 358 359 354 354 354 349 345 342 339 332 318 301 288 281 264 257 254 250 246 242 243 246 240 238 247 244 247 246 244
14 11 8 6 3 1 359 357 354 353 353 351 350 347 343 339 339 338 333 329 327 325 317 311 309 309 303 293 288 282 280 274 266 259 252 250 249 250 248 247 249 248 248
5 3 360 357 355 352 349 346 344 342 341 338 335 333 332 327 323 320 319 316 311 306 302 300 296 293 288 285 282 278 275 277 271 271 267 260 257 252 251 251 250 246 245
354 351 348 345 342 339 336 334 332 330 328 328 321 318 315 314 313 309 305 304 304 302 301 298 290 284 280 278 277 272 270 268 269 269 267 264 263 262 260 258 254 250 246
345 340 339 338 336 333 328 325 322 320 316 317 316 313 309 305 302 301 299 294 290 291 291 288 288 288 282 277 273 270 269 266 262 259 257 257 258 256 254 253 251 250 249
340 338 334 332 330 328 324 322 321 317 314 310 308 306 305 302 299 294 292 290 288 284 279 279 279 278 277 277 272 269 268 267 267 263 260 258 253 250 250 250 249 249 247
336 335 332 331 329 327 325 322 320 318 315 313 311 307 304 302 299 296 293 286 283 281 279 276 274 273 271 269 268 269 266 263 262 263 262 262 261 259 255 255 256 258 260
333 331 329 328 328 325 325 323 321 320 317 315 313 312 309 307 305 303 299 294 288 283 279 276 272 269 270 269 267 266 266 266 265 262 260 259 258 257 256 254 252 251 252
331 330 328 326 326 326 325 324 322 320 318 315 313 310 309 307 305 303 302 300 296 291 284 279 275 272 265 263 265 267 266 264 262 261 259 258 258 257 255 255 253 254 252
332 330 328 328 327 325 323 321 319 317 316 314 311 310 308 306 304 302 299 300 297 293 291 286 280 275 271 268 263 259 258 260 261 260 259 258 258 259 259 258 257 255 255
331 330 328 327 325 323 321 319 317 315 312 310 308 305 304 303 302 301 300 297 296 295 291 288 286 281 276 271 266 263 261 258 256 256 257 257 258 258 258 258 257 257 255
330 329 327 326 324 322 320 318 316 314 311 309 307 305 302 301 299 298 298 296 294 294 291 288 286 283 278 275 272 265 261 258 257 257 257 256 257 257 258 257 256 255 255
Height
2978 2974 2969 2967 2967 2965 2964 2963 2962 2961 2964 2968 2972 2974 2977 2980 2983 2987 2993 2999 2993 3007 3014 3016 3019 3024 3027 3031 3033 3036 3036 3037 3038 3044 3047 3051 3053 3056 3058 3059 3063 3066 3068
2972 2967 2963 2960 2961 2960 2959 2958 2957 2957 2958 2961 2964 2967 2969 2973 2975 2979 2986 2992 2997 3002 3004 3006 3004 3013 3018 3022 3025 3026 3028 3030 3031 3034 3038 3041 3047 3049 3051 3053 3054 3055 3059
2965 2961 2957 2954 2952 2952 2953 2952 2951 2949 2948 2952 2952 2955 2961 2965 2968 2973 2979 2985 2990 2993 2993 2986 2988 3006 3009 3013 3015 3018 3020 3022 3025 3026 3030 3032 3036 3040 3042 3044 3044 3047 3049
2958 2954 2951 2948 2946 2944 2943 2942 2944 2944 2947 2948 2949 2946 2951 2953 2962 2965 2970 2975 2983 2986 2985 2986 2991 2996 3000 3002 3005 3009 3011 3014 3016 3018 3021 3024 3028 3031 3032 3033 3036 3037 3041
2954 2950 2946 2943 2942 2939 2936 2936 2934 2936 2939 2941 2944 2946 2947 2944 2955 2960 2964 2970 2975 2977 2979 2982 2984 2988 2992 2994 2998 3001 3004 3005 3007 3010 3011 3013 3016 3020 3019 3023 3026 3028 3029
2952 2947 2943 2941 2938 2935 2930 2926 2925 2929 2931 2930 2936 2935 2943 2945 2951 2955 2959 2964 2968 2969 2972 2973 2978 2982 2985 2987 2990 2993 2995 2997 3000 3001 3002 3004 3006 3007 3008 3013 3015 3018 3020
2950 2946 2942 2938 2935 2931 2928 2925 2922 2924 2926 2926 2927 2928 2932 2940 2943 2949 2953 2957 2960 2963 2966 2969 2972 2975 2978 2981 2982 2985 2986 2989 2990 2991 2991 2993 2994 2995 2999 3002 3005 3008 3012
2951 2947 2943 2939 2935 2930 2927 2924 2922 2919 2919 2920 2922 2923 2927 2927 2938 2942 2947 2949 2953 2956 2959 2963 2965 2967 2970 2974 2975 2978 2980 2980 2980 2981 2980 2982 2983 2985 2989 2993 2996 2999 3002
2952 2948 2945 2941 2937 2932 2927 2924 2921 2918 2916 2916 2918 2920 2922 2925 2928 2934 2940 2943 2945 2949 2952 2955 2957 2960 2963 2966 2968 2971 2972 2972 2971 2972 2971 2972 2975 2976 2980 2983 2985 2991 2995
2954 2951 2947 2942 2939 2935 2931 2927 2924 2921 2918 2917 2916 2916 2917 2920 2923 2927 2929 2933 2938 2941 2945 2948 2950 2953 2955 2958 2961 2962 2964 2964 2964 2965 2964 2964 2966 2968 2972 2975 2979 2984 2988
2956 2954 2951 2946 2942 2939 2935 2933 2930 2926 2923 2921 2919 2918 2918 2918 2919 2919 2919 2921 2927 2930 2936 2939 2942 2945 2947 2949 2952 2955 2957 2958 2958 2958 2959 2959 2961 2963 2965 2969 2973 2975 2977
2958 2956 2953 2950 2947 2943 2940 2938 2935 2932 2929 2926 2925 2924 2922 2919 2918 2918 2919 2918 2917 2921 2926 2927 2932 2935 2938 2940 2944 2947 2949 2950 2951 2953 2954 2956 2957 2958 2961 2964 2965 2968 2971
2961 2959 2956 2953 2950 2947 2945 2942 2940 2937 2934 2931 2928 2926 2925 2923 2923 2922 2921 2919 2918 2920 2919 2920 2924 2929 2930 2934 2934 2936 2939 2941 2943 2945 2947 2949 2951 2954 2955 2957 2959 2962 2965
2963 2960 2958 2955 2952 2950 2948 2945 2943 2940 2937 2934 2931 2930 2928 2926 2925 2924 2922 2921 2920 2919 2918 2919 2918 2918 2921 2923 2925 2927 2930 2932 2934 2935 2939 2941 2942 2944 2948 2949 2951 2953 2956
2965 2963 2961 2958 2955 2952 2950 2947 2944 2941 2938 2936 2934 2932 2930 2929 2928 2925 2923 2921 2920 2919 2918 2917 2917 2918 2917 2918 2919 2921 2923 2924 2924 2926 2928 2931 2932 2935 2937 2939 2941 2943 2945
2967 2964 2962 2959 2956 2953 2951 2948 2944 2942 2939 2936 2934 2933 2930 2928 2926 2925 2923 2922 2920 2919 2919 2919 2918 2916 2915 2917 2917 2917 2920 2919 2919 2921 2921 2923 2925 2928 2929 2930 2933 2935 2937
2964 2962 2959 2956 2954 2951 2949 2947 2944 2942 2939 2936 2935 2932 2930 2929 2926 2924 2922 2920 2919 2918 2917 2916 2916 2915 2915 2915 2915 2915 2916 2914 2917 2917 2917 2918 2920 2921 2923 2925 2927 2930 2931
2962 2960 2958 2955 2952 2949 2947 2944 2941 2939 2937 2935 2932 2930 2927 2925 2924 2922 2920 2917 2916 2915 2913 2912 2912 2911 2911 2912 2912 2912 2910 2910 2911 2911 2912 2913 2914 2916 2917 2918 2921 2923 2925
2960 2956 2953 2950 2948 2945 2942 2939 2936 2934 2931 2930 2926 2923 2921 2919 2917 2916 2914 2913 2913 2910 2909 2909 2908 2906 2906 2906 2906 2906 2906 2906 2907 2907 2907 2908 2909 2910 2911 2912 2914 2916 2917
2957 2954 2950 2946 2943 2939 2934 2931 2928 2925 2922 2921 2920 2917 2914 2912 2910 2909 2907 2905 2904 2903 2902 2902 2901 2900 2900 2900 2900 2900 2900 2901 2901 2901 2902 2902 2903 2904 2905 2906 2908 2910 2911
2954 2950 2945 2942 2938 2934 2930 2925 2921 2917 2913 2910 2906 2908 2906 2903 2901 2899 2899 2897 2895 2894 2893 2892 2893 2893 2893 2893 2894 2894 2894 2895 2896 2897 2896 2896 2897 2898 2899 2900 2902 2904 2906
2950 2945 2940 2936 2931 2926 2923 2918 2915 2911 2908 2904 2901 2897 2895 2894 2892 2891 2890 2889 2887 2886 2884 2884 2884 2884 2884 2884 2885 2886 2886 2888 2889 2889 2889 2890 2891 2892 2893 2894 2896 2898 2900
2943 2938 2933 2929 2925 2920 2916 2913 2908 2905 2901 2898 2895 2891 2889 2886 2884 2883 2882 2880 2878 2878 2876 2876 2875 2875 2875 2876 2877 2878 2879 2879 2879 2880 2880 2881 2883 2884 2885 2887 2889 2891 2893
2936 2931 2927 2922 2918 2914 2910 2906 2903 2899 2895 2892 2889 2885 2882 2879 2877 2874 2872 2872 2870 2869 2868 2868 2867 2867 2866 2867 2869 2868 2869 2870 2871 2872 2873 2874 2874 2876 2878 2879 2881 2882 2884
2929 2925 2920 2916 2912 2908 2904 2900 2896 2892 2889 2885 2882 2879 2876 2873 2870 2867 2864 2863 2863 2861 2859 2859 2858 2858 2857 2859 2859 2860 2861 2862 2862 2863 2864 2866 2867 2868 2870 2872 2873 2875 2877
2922 2918 2913 2909 2905 2900 2896 2892 2888 2884 2881 2878 2874 2871 2868 2865 2863 2860 2858 2854 2853 2853 2851 2850 2851 2849 2850 2851 2850 2851 2852 2853 2853 2855 2856 2857 2860 2861 2862 2864 2866 2867 2869